User: anonymous   Login
Location: Unspecified
(0.0000°N, 0.0000°E)
Time: 11:47:46
(UTC+00:00)
Language:

DSAT - Orbit

View from above orbital plane
View from above orbital plane
View from above satellite
View from above satellite

Ground track
Ground track

The orbit data is extracted from the following two-line orbital elements,

1 42794U 17036AF  18168.91599105 +.00000122 +00000-0 +16439-4 0  9998
2 42794 097.5913 223.5457 0125497 279.9570 078.7504 14.90872096053833
Epoch (UTC): 17 June 2018 21:59:01
Eccentricity: 0.0125497
inclination: 97.5913°
perigee height: 508 km
apogee height: 683 km
right ascension of ascending node: 223.5457°
argument of perigee: 279.9570°
revolutions per day: 14.90872096
mean anomaly at epoch: 78.7504°
orbit number at epoch: 5383

The dashed part of the orbit path shows where the satellite is in the earth's shadow,  

DLR